Home   Weather   Tunis   Past weeks
Flag for Tunisia

Past Weather in Tunis, Tunisia — Yesterday and Last 2 Weeks

Now
54 °F

Passing clouds.


Feels Like: 53 °F
Forecast: 60 / 51 °F
Wind: 5 mph from Northwest

Location: Tunis-Carthage

Current Time: Mar 19, 2019 at 10:34:09 pm

Latest Report: Mar 19, 2019 at 10:00 pm


Visibility: 5 mi

Pressure: 30.09 "Hg

Humidity: 63%

Dew Point: 41 °F

Location of TunisLocation

Past Weather in Tunis — Graph

°F

Tunis Temperature Yesterday

Maximum temperature yesterday: 70 °F (at 12:00 pm)
Minimum temperature yesterday: 48 °F (at 1:30 am)
Average temperature yesterday: 58 °F

High & Low Weather Summary for the Past Weeks

 TemperatureHumidityPressure
High77 °F (Mar 5, 2:00 pm)100% (Mar 8, 2:30 am)30.39 "Hg (Mar 8, 2:30 am)
Low48 °F (Mar 6, 6:00 am)24% (Mar 5, 2:00 pm)29.95 "Hg (Mar 7, 3:30 am)
Average60 °F58%30.14 "Hg
* Reported Mar 4 9:00 pm — Mar 19 9:00 pm, Tunis. Weather by CustomWeather, © 2019

Note: Actual official high and low records may vary slightly from our data, if they occured in-between our weather recording intervals... More about our weather records

Advertising

Tunis Weather History for the Previous 24 Hours

Scroll right to see more
 ConditionsComfort  
Time TempWeatherWind HumidityBarometerVisibility
9:00 pm
Tue, Mar 19
54 °FPassing clouds.6 mph58%30.09 "Hg5 mi
8:30 pm54 °FPassing clouds.6 mph58%30.09 "Hg5 mi
8:00 pm55 °FPassing clouds.7 mph55%30.07 "Hg5 mi
7:30 pm55 °FPassing clouds.8 mph55%30.07 "Hg5 mi
7:00 pm55 °FPassing clouds.12 mph55%30.07 "Hg5 mi
6:30 pm57 °FPassing clouds.12 mph51%30.04 "Hg5 mi
6:00 pm57 °FScattered clouds.12 mph51%30.04 "Hg5 mi
5:00 pm59 °FScattered clouds.16 mph48%30.04 "HgN/A
4:30 pm61 °FScattered clouds.18 mph42%30.04 "HgN/A
4:00 pm61 °FPartly sunny.14 mph42%30.04 "HgN/A
3:30 pm61 °FPartly sunny.16 mph42%30.04 "HgN/A
3:00 pm61 °FPartly sunny.13 mph45%30.04 "HgN/A
2:30 pm61 °FPartly sunny.15 mph42%30.04 "HgN/A
2:00 pm61 °FPartly sunny.16 mph42%30.04 "HgN/A
1:30 pm63 °FPartly sunny.16 mph39%30.04 "HgN/A
1:00 pm63 °FPartly sunny.15 mph37%30.07 "HgN/A
12:30 pm61 °FScattered clouds.16 mph39%30.07 "HgN/A
12:00 pm63 °FScattered clouds.15 mph34%30.07 "HgN/A
11:30 am59 °FScattered clouds.16 mph45%30.07 "HgN/A
11:00 am61 °FScattered clouds.15 mph45%30.07 "HgN/A
10:30 am59 °FScattered clouds.14 mph45%30.09 "HgN/A
10:00 am57 °FScattered clouds.14 mph55%30.09 "HgN/A
9:30 am59 °FScattered clouds.12 mph51%30.09 "HgN/A
9:00 am57 °FPassing clouds.10 mph59%30.07 "HgN/A
8:30 am54 °FScattered clouds.8 mph67%30.07 "Hg5 mi
8:00 am52 °FScattered clouds.6 mph72%30.09 "Hg5 mi
7:30 am52 °FPassing clouds.9 mph72%30.07 "HgN/A
7:00 am54 °FPassing clouds.5 mph63%30.07 "HgN/A
6:30 am54 °FPassing clouds.6 mph63%30.07 "HgN/A
6:00 am52 °FPassing clouds.7 mph67%30.07 "HgN/A
5:30 am52 °FPassing clouds.7 mph67%30.07 "HgN/A
5:00 am54 °FPassing clouds.6 mph63%30.07 "HgN/A
4:30 am54 °FPassing clouds.7 mph63%30.07 "HgN/A
4:00 am52 °FPassing clouds.8 mph72%N/AN/A
3:30 am54 °FPassing clouds.10 mph67%N/AN/A
3:00 am54 °FPassing clouds.12 mph67%N/AN/A
2:30 am54 °FPassing clouds.10 mph67%N/AN/A
1:30 am54 °FPassing clouds.12 mph67%30.09 "HgN/A
1:00 am54 °FPassing clouds.10 mph67%30.09 "HgN/A
12:30 am54 °FPassing clouds.10 mph67%30.09 "HgN/A
12:00 am54 °FPassing clouds.12 mph72%30.09 "HgN/A
11:30 pm
Mon, Mar 18
54 °FPassing clouds.10 mph72%30.09 "HgN/A
11:00 pm54 °FPassing clouds.10 mph72%30.12 "HgN/A
10:30 pm54 °FPassing clouds.10 mph72%30.09 "HgN/A
10:00 pm55 °FPassing clouds.13 mph67%30.09 "HgN/A
Weather by CustomWeather, © 2019

See weather overview